Notices

What's New in latest Release from April 7th, 2021:

- Updated Glossary, including Speed of Maximum Gust, and Total Hourly Precipitation

- Updated national and regional climate services offices contacts and prices information

- Addition of station inventory lists for 1981-2010, 1971-2000, and 1961-1990 Normals.

If you haven't already, please take our survey and provide feedback about our website: https://eccc.sondage-survey.ca/f/LanguageSelection.aspx?s=442ca660-fcf1-47c0-95a9-59707d6fd709

Hourly Data Report for January 12, 2021

SHEARWATER RCS
NOVA SCOTIA
Current Station Operator: ECCC - MSC

44°37'47.000" N
63°30'48.000" W
24.00 m
8205092
71264
AAW

Download Data

Hourly Data (January 2021)
Hourly Data Report for January 12, 2021
TIME
LST
Temp Definition
°C
Dew Point Definition
°C
Rel Hum Definition
%
Precip. Amount Definition
mm

Wind Dir Definition
10's deg

Wind Spd Definition
km/h
Visibility Definition
km
Stn Press Definition
kPa
Hmdx Definition


Wind Chill Definition


Weather Definition


00:00 0.1 -3.4 77 0.0 27 2   101.66     LegendNANA
01:00 -0.1 -3.2 79 0.0 12 3   101.64   -1 LegendNANA
02:00 0.7 -3.4 74 0.0 22 3   101.60     LegendNANA
03:00 -0.7 -3.7 80 0.0 10 4   101.55   -2 LegendNANA
04:00 0.5 -1.9 84 0.0 14 4   101.46     LegendNANA
05:00 1.8 -0.7 83 0.0 17 9   101.39     LegendNANA
06:00 1.4 -0.8 85 0.0 19 2   101.35     LegendNANA
07:00 1.3 -0.4 89 0.0 17 7   101.29     LegendNANA
08:00 2.7 0.7 86 0.0 19 9   101.25     LegendNANA
09:00 3.4 1.1 85 0.0 18 10   101.26     LegendNANA
10:00 4.0 1.8 86 0.0 17 8   101.22     LegendNANA
11:00 5.0 1.9 80 0.0 20 12   101.15     LegendNANA
12:00 5.1 2.4 83 0.0 19 13   101.02     LegendNANA
13:00 5.8 0.0 66 0.0 23 8   100.94     LegendNANA
14:00 5.6 -1.0 62 0.0 25 10   100.90     LegendNANA
15:00 4.9 0.1 72 0.0 26 9   100.91     LegendNANA
16:00 2.9 0.3 83 0.0 31 10   100.95     LegendNANA
17:00 1.8 -0.4 85 0.0 32 11   101.01     LegendNANA
18:00 1.3 -1.2 83 0.0 31 14   101.04     LegendNANA
19:00 0.8 -1.4 85 0.0 32 12   101.06     LegendNANA
20:00 0.2 -2.9 79 0.0 33 15   101.11     LegendNANA
21:00 0.0 -3.3 79 0.0 34 17   101.16   -5 LegendNANA
22:00 -0.6 -3.6 80 0.0 34 13   101.17   -5 LegendNANA
23:00 -1.2 -4.4 79 0.0 32 10   101.20   -5 LegendNANA

Notes on Data Quality.

Legend

  • E = Estimated
  • M = Missing
  • NA = Not Available*
  • [empty] = Indicates an unobserved value
Date modified: